Regional Weather Roundup
Issued by NWS

Home | Current Version | Previous Version | Text Only | Print | Product List | Glossary Off
Versions: 1 2 3 4 5 6 7 8 9 10 11 12 13 14 15 16 17 18 19 20 21 22 23 24 25 26 27 28

000
ASUS45 KPSR 230110
RWRAZ

ARIZONA HOURLY REGIONAL WEATHER ROUNDUP
NATIONAL WEATHER SERVICE PHOENIX AZ
600 PM MST FRI JUL 22 2016

NOTE: FAIR INDICATES FEW OR NO CLOUDS BELOW 12,000 FEET WITH NO
SIGNIFICANT WEATHER AND/OR OBSTRUCTIONS TO VISIBILITY.

AZZ001>003-036-230200-
NORTHWEST ARIZONA

CITY           SKY/WX    TMP DP  RH WIND       PRES   REMARKS
BULLHEAD CITY  MOSUNNY  115  36   7 SW7       29.71F HX 107
KINGMAN        PTSUNNY  100  37  11 SW18      29.99F
$$

AZZ004>008-015-016-018-230200-
NORTH CENTRAL ARIZONA

CITY           SKY/WX    TMP DP  RH WIND       PRES   REMARKS
GRAND CANYON   CLOUDY    69  56  62 E6        30.29F
WILLIAMS       CLOUDY    72  50  46 E9G17     30.42R
PRESCOTT       TSTM      72  60  66 S15       30.22S
FLAGSTAFF      CLOUDY    72  47  40 CALM      30.36R
PAYSON         CLOUDY    77  52  41 N8G15     30.22F
PAGE           PTSUNNY   98  42  14 E9        30.03F
$$

AZZ009>014-017-230200-
NORTHEAST ARIZONA

CITY           SKY/WX    TMP DP  RH WIND       PRES   REMARKS
WINSLOW        CLOUDY    81  52  36 SW9       30.17R
SAINT JOHNS    PTSUNNY   83  47  28 W24G31    30.24R
WINDOW ROCK    CLOUDY    77  54  44 N5        30.30S
SHOW LOW       LGT RAIN  70  50  49 N13G18    30.31F
$$

AZZ023-230200-
GREATER PHOENIX AREA

CITY           SKY/WX    TMP DP  RH WIND       PRES   REMARKS
PHOENIX        PTSUNNY  111  52  14 SW5       29.76F HX 108
BUCKEYE        MOSUNNY  111  50  13 S9        29.78S HX 108
GLENDALE       PTSUNNY  111  50  13 S6        29.79S HX 108
LUKE AFB       PTSUNNY  110  52  14 S10       29.76S HX 108
DEER VALLEY    PTSUNNY  108  52  15 VRB5      29.81R HX 105
SCOTTSDALE     PTSUNNY  109  49  13 VRB3      29.82S HX 105
MESA-GATEWAY   MOSUNNY  108  54  16 CALM      29.80F HX 106
$$

AZZ027-028-230200-
SOUTHWEST MARICOPA COUNTY AND PINAL COUNTY

CITY           SKY/WX    TMP DP  RH WIND       PRES   REMARKS
CASA GRANDE    SUNNY    109  55  17 W9        29.84F HX 108
GILA BEND      FAIR     112  45  10 NW8       29.75S HX 107
$$

AZZ503-504-507>509-230200-
SOUTHEAST ARIZONA

CITY           SKY/WX    TMP DP  RH WIND       PRES   REMARKS
TUCSON         FAIR     103  49  16 SW6       29.93F
DAVIS-MONTHAN  SUNNY    104  47  14 W7        29.91F HX 100
RYAN FIELD     SUNNY    106  48  14 NW5       29.91F HX 102
NOGALES        PTSUNNY   97  49  19 CALM      30.04F
SIERRA VISTA   PTSUNNY   94  44  17 E2        30.12F
DOUGLAS        PTSUNNY   93  51  23 CALM      30.05F
SAFFORD        MOSUNNY  103  48  15 S7        29.93F
$$

AZZ020-021-025-026-031-230200-
SOUTHWEST ARIZONA

CITY           SKY/WX    TMP DP  RH WIND       PRES   REMARKS
YUMA           PTSUNNY  111  57  17 S13       29.72F HX 111
$$

CAZ031-033-041-043-047-048-061-230200-
SOUTHERN CALIFORNIA

CITY           SKY/WX    TMP DP  RH WIND       PRES   REMARKS
DOWNTOWN L.A.  SUNNY     89  51  27 W5        29.81F
L.A. AIRPORT   MOSUNNY   80  57  45 W10       29.82F
SAN DIEGO      MOSUNNY   81  59  47 NW12      29.84F
BURBANK        SUNNY     96  51  21 E14       29.83S
ONTARIO        MOSUNNY  101  43  13 W13       29.84S
RIVERSIDE      MOSUNNY  102  49  16 W14G21    29.83S
PALM SPRINGS   SUNNY    114  39   8 E5        29.74F HX 107
EL CENTRO NAS  MOSUNNY  114  49  11 SE12      29.69F HX 110
IMPERIAL       SUNNY    115  58  15 SE10      29.67F HX 115
BLYTHE         MOSUNNY  115  43   9 S17       29.71F HX 109
NEEDLES        MOSUNNY  116  37   7 W8        29.74F HX 108
$$

NVZ020-UTZ003-230200-
SOUTHERN NEVADA-UTAH

CITY           SKY/WX    TMP DP  RH WIND       PRES   REMARKS
LAS VEGAS      MOSUNNY  110  27   5 SW10      29.79F HX 102
SALT LAKE CITY FAIR      98  31   9 N15       30.00S
$$

NMZ009-TXZ055-230200-
NEW MEXICO-WEST TEXAS

CITY           SKY/WX    TMP DP  RH WIND       PRES   REMARKS
ALBUQUERQUE    CLOUDY    97  35  11 SW12      30.11F
EL PASO        MOSUNNY  100  44  14 S7        29.99F
$$


........................KEY........................
SKY/WX - SKY CONDITION/WEATHER
TMP    - TEMPERATURE IN FAHRENHEIT
DP     - DEW POINT IN FAHRENHEIT
RH     - RELATIVE HUMIDITY IN PERCENT
WIND   - DIRECTION AND SPEED IN MILES PER HOUR (MPH)
VRB    - VARIABLE WIND DIRECTION
PRES   - MEAN SEA LEVEL PRESSURE IN INCHES OF MERCURY
         F - FALLING PRESSURE   R - RISING PRESSURE
         S - STEADY PRESSURE
VSB    - VISIBILITY IN MILES
HX     - HEAT INDEX IN FAHRENHEIT
WCI    - WIND CHILL INDEX IN FAHRENHEIT
TC     - TEMPERATURE IN CELSIUS WHICH IS ALSO KNOWN AS
         TEMPERATURE IN CENTIGRADE
AFB    - AIR FORCE BASE
         LUKE AFB IS LUKE AIR FORCE BASE
         DAVIS-MONTHAN IS DAVIS-MONTHAN AIR FORCE BASE
NAS    - NAVAL AIR STATION
         EL CENTRO NAS IS EL CENTRO NAVAL AIR STATION
N/A    - NOT AVAILABLE





USA.gov is the U.S. government's official web portal to all federal, state and local government web resources and services.